Torna al catalogo

STARLINK-31638

AttivoComunicazioniVLEO
NORAD 59489·PAYLOAD·🇺🇸 United States

Lanciato Apr 13, 2024 da Cape Canaveral Space Force Station

Loading…

Prossimi Passaggi (prossime 24 ore)

TLE

AggiornatoSource: CelesTrak SupGP

Epoca: Sep 15, 2026, 02:43 UTC

1 59489C 24071F   26258.11368056  .00039029  00000+0  14132-2 0  2585
2 59489  43.0031 349.8679 0001752 267.2408 206.6454 15.27567770    13

Traccia STARLINK-31638 in tempo reale con AllMySat

Download on the App Store